Yatton Keynell, United Kingdom

2:02 AM BST on April 25, 2019 (GMT +0100)
Yatton Keynell

Weather History for 03740 - June, 1998

Change the Weather History Date:

Friday, June 19, 1998

  Actual Average Record
Temperature  
Mean Temperature 65 °F -  
Max Temperature 73 °F 68 °F - ()
Min Temperature 57 °F 52 °F - ()
Growing Degree Days 15 (Base 50)    
Moisture  
Dew Point 56 °F    
Average Humidity 76    
Maximum Humidity 100    
Minimum Humidity 53    
Precipitation  
Precipitation 0.00 in 0.07 in - ()
Sea Level Pressure  
Sea Level Pressure 30.17 in    
Wind  
Wind Speed 7 mph ()    
Max Wind Speed 15 mph    
Max Gust Speed -    
Visibility 3.3 miles    
Events Fog    
T = Trace of Precipitation, MM = Missing Value Source: Averaged Metar Reports

Daily Weather History Graph

Daily Weather History Graph

Search for Another Location

Airport or City:

Astronomy

Jun. 19, 1998 Rise Set
Actual Time 4:50 AM BST 9:28 PM BST
Civil Twilight 4:02 AM BST 10:16 PM BST
Nautical Twilight 2:47 AM BST 11:30 PM BST
Astronomical Twilight 1:41 AM BST 12:36 AM BST
Moon 2:15 AM BST (6/19) 3:34 PM BST (6/19)
Length of Visible Light 18h 13m
Length of Day
16h 38m
Waning Crescent, 28% of the Moon is Illuminated
Jun 19
Waning Crescent
Jun 24
New
Jul 1
First Quarter
Jul 9
Full
Jul 16
Last Quarter

Hourly Weather History & Observations

Time (BST) Temp. Dew Point Humidity Pressure Visibility Wind Dir Wind Speed Gust Speed Precip Events Conditions
12:50 AM 57.2 °F 55.4 °F 94% 30.21 in 2.8 mi WSW 6.9 mph - N/A   Overcast
1:50 AM 57.2 °F 55.4 °F 94% 30.18 in 1.1 mi SW 8.1 mph - N/A   Overcast
2:50 AM 57.2 °F 57.2 °F 100% 30.18 in 0.2 mi SW 8.1 mph - N/A Fog Fog
3:50 AM 57.2 °F 57.2 °F 100% 30.18 in 0.2 mi SW 4.6 mph - N/A Fog Fog
4:50 AM 57.2 °F 57.2 °F 100% 30.18 in 0.2 mi SSW 5.8 mph - N/A Fog Fog
5:50 AM 57.2 °F 55.4 °F 94% 30.18 in 0.9 mi SSW 3.5 mph - N/A   Mostly Cloudy
6:50 AM 57.2 °F 55.4 °F 94% 30.18 in 3.7 mi South 4.6 mph - N/A   Mostly Cloudy
7:50 AM 57.2 °F 55.4 °F 94% 30.21 in 6.2 mi SSW 5.8 mph - N/A   Light Drizzle
8:50 AM 59.0 °F 55.4 °F 88% 30.21 in 6.2 mi South 8.1 mph - N/A   Mostly Cloudy
9:50 AM 62.6 °F 53.6 °F 72% 30.21 in 6.2 mi South 6.9 mph - N/A   Mostly Cloudy
10:50 AM 66.2 °F 55.4 °F 68% 30.18 in 6.2 mi South 8.1 mph - N/A   Mostly Cloudy
11:50 AM 68.0 °F 57.2 °F 68% 30.18 in 6.2 mi South 11.5 mph - N/A   Mostly Cloudy
12:50 PM 69.8 °F 55.4 °F 60% 30.18 in - South 10.4 mph - N/A   Clear
1:50 PM 71.6 °F 57.2 °F 60% 30.18 in - South 11.5 mph - N/A   Clear
2:50 PM 71.6 °F 55.4 °F 57% 30.18 in - South 10.4 mph - N/A   Clear
3:50 PM 73.4 °F 55.4 °F 53% 30.15 in - South 12.7 mph - N/A   Clear
4:50 PM 71.6 °F 55.4 °F 57% 30.15 in - South 6.9 mph - N/A   Clear
5:50 PM 71.6 °F 55.4 °F 57% 30.15 in - SSE 11.5 mph - N/A   Clear
6:50 PM 71.6 °F 55.4 °F 57% 30.12 in - SSE 15.0 mph - N/A   Clear
7:50 PM 69.8 °F 55.4 °F 60% 30.12 in - South 4.6 mph - N/A   Clear
8:50 PM 66.2 °F 57.2 °F 73% 30.12 in - South 5.8 mph - N/A   Clear
9:50 PM 62.6 °F 53.6 °F 72% 30.15 in - SE 6.9 mph - N/A   Clear
10:50 PM 60.8 °F 53.6 °F 77% 30.12 in - SSE 4.6 mph - N/A   Clear
11:50 PM 62.6 °F 53.6 °F 72% 30.12 in - SSE 10.4 mph - N/A   Clear